Location: Arran
(51.9410°N, 101.7372°W)
Time: 00:25:41
(UTC+00:00)

BlueWalker 3 - Pass Details

Date: 26 November 2022
Orbit: 498 x 517 km, 53.2° (Epoch: 08 February)

Event Time Altitude Azimuth Distance (km) Brightness Sun altitude
Rises 01:58:00 0° 256° (WSW) 2,623 6.7 -29.1°
Reaches altitude 10° 02:00:12 10° 256° (WSW) 1,734 5.5 -29.5°
Enters shadow 02:01:57 25° 258° (WSW) 1,057 4.1 -29.8°
